| time (UTC) | temp C | wind direction | speed KPH | gust KPH | rain 1hr cm | rain 24hr cm | rain mn cm | humidity % | barometer mb |
| 20260902194701 | -17 | 268 | 1.6 | 6.4 | 0.00 | 0.00 | 0.00 | 99 | 1012.2 |
| 20260902194201 | -17 | 273 | 1.6 | 6.4 | 0.00 | 0.00 | 0.00 | 99 | 1012.2 |
| 20260902193701 | -17 | 275 | 0.0 | 6.4 | 0.00 | 0.00 | 0.00 | 99 | 1012.2 |
| 20260902193201 | -17 | 269 | 0.0 | 8.0 | 0.00 | 0.00 | 0.00 | 99 | 1013.0 |
| 20260902192701 | -17 | 273 | 1.6 | 8.0 | 0.00 | 0.00 | 0.00 | 99 | 1013.0 |
| 20260902192201 | -17 | 269 | 0.0 | 4.8 | 0.00 | 0.00 | 0.00 | 99 | 1013.0 |
| 20260902191701 | -17 | 267 | 1.6 | 4.8 | 0.00 | 0.00 | 0.00 | 99 | 1013.0 |
| 20260902191201 | -17 | 265 | 0.0 | 6.4 | 0.00 | 0.00 | 0.00 | 99 | 1012.2 |
| 20260902190701 | -17 | 217 | 1.6 | 6.4 | 0.00 | 0.00 | 0.00 | 99 | 1013.0 |
| 20260902190201 | -17 | 47 | 0.0 | 0.0 | 0.00 | 0.00 | 0.00 | 99 | 1013.0 |
| 20260902185701 | -17 | 349 | 0.0 | 3.2 | 0.00 | 0.00 | 0.00 | 99 | 1012.2 |
| 20260902185203 | -17 | 278 | 0.0 | 4.8 | 0.00 | 0.00 | 0.00 | 99 | 1013.0 |
| 20260902184701 | -17 | 272 | 0.0 | 4.8 | 0.00 | 0.00 | 0.00 | 99 | 1013.0 |
| 20260902184201 | -17 | 288 | 0.0 | 4.8 | 0.00 | 0.00 | 0.00 | 99 | 1012.2 |
| 20260902183701 | -17 | 273 | 1.6 | 4.8 | 0.00 | 0.00 | 0.00 | 99 | 1013.0 |
| 20260902183201 | -17 | 270 | 0.0 | 4.8 | 0.00 | 0.00 | 0.00 | 99 | 1013.0 |
| 20260902182701 | -17 | 269 | 0.0 | 4.8 | 0.00 | 0.00 | 0.00 | 99 | 1013.0 |
| 20260902182201 | -17 | 90 | 0.0 | 4.8 | 0.00 | 0.00 | 0.00 | 99 | 1012.2 |
| 20260902181701 | -17 | 132 | 1.6 | 6.4 | 0.00 | 0.00 | 0.00 | 99 | 1012.2 |
| 20260902181201 | -17 | 264 | 1.6 | 6.4 | 0.00 | 0.00 | 0.00 | 99 | 1012.2 |
| 20260902180701 | -17 | 169 | 0.0 | 4.8 | 0.00 | 0.00 | 0.00 | 99 | 1012.2 |
| 20260902180201 | -17 | 268 | 0.0 | 4.8 | 0.00 | 0.00 | 0.00 | 99 | 1013.0 |
| 20260902175701 | -17 | 262 | 1.6 | 8.0 | 0.00 | 0.00 | 0.00 | 99 | 1012.2 |
| 20260902175201 | -17 | 266 | 1.6 | 8.0 | 0.00 | 0.00 | 0.00 | 99 | 1012.2 |
| 20260902174701 | -17 | 97 | 0.0 | 9.7 | 0.00 | 0.00 | 0.00 | 99 | 1012.2 |
| 20260902174201 | -17 | 171 | 0.0 | 9.7 | 0.00 | 0.00 | 0.00 | 99 | 1012.2 |
| 20260902173701 | -17 | 275 | 0.0 | 6.4 | 0.00 | 0.00 | 0.00 | 99 | 1013.0 |
| 20260902173201 | -17 | 131 | 0.0 | 6.4 | 0.00 | 0.00 | 0.00 | 99 | 1012.2 |
| 20260902172701 | -17 | 209 | 0.0 | 3.2 | 0.00 | 0.00 | 0.00 | 99 | 1013.0 |
| 20260902172201 | -17 | 102 | 0.0 | 6.4 | 0.00 | 0.00 | 0.00 | 99 | 1013.1 |
| 20260902171701 | -17 | 286 | 1.6 | 6.4 | 0.00 | 0.00 | 0.00 | 99 | 1013.2 |
| 20260902171201 | -17 | 279 | 0.0 | 1.6 | 0.00 | 0.00 | 0.00 | 99 | 1013.2 |
| 20260902170701 | -17 | 276 | 0.0 | 3.2 | 0.00 | 0.00 | 0.00 | 99 | 1014.0 |
| 20260902170201 | -17 | 276 | 0.0 | 4.8 | 0.00 | 0.00 | 0.00 | 99 | 1014.0 |
| 20260902165701 | -17 | 275 | 0.0 | 4.8 | 0.00 | 0.00 | 0.00 | 99 | 1013.2 |
| 20260902165201 | -17 | 266 | 0.0 | 3.2 | 0.00 | 0.00 | 0.00 | 99 | 1013.2 |
| 20260902164701 | -17 | 237 | 0.0 | 1.6 | 0.00 | 0.00 | 0.00 | 99 | 1014.0 |
| 20260902164201 | -17 | 265 | 0.0 | 3.2 | 0.00 | 0.00 | 0.00 | 99 | 1013.2 |
| 20260902163701 | -17 | 271 | 0.0 | 4.8 | 0.00 | 0.00 | 0.00 | 99 | 1013.2 |
| 20260902163201 | -17 | 285 | 0.0 | 4.8 | 0.00 | 0.00 | 0.00 | 99 | 1014.0 |
| 20260902162701 | -17 | 230 | 0.0 | 6.4 | 0.00 | 0.00 | 0.00 | 99 | 1014.0 |
| 20260902162201 | -17 | 270 | 1.6 | 6.4 | 0.00 | 0.00 | 0.00 | 99 | 1013.2 |
| 20260902161701 | -17 | 229 | 0.0 | 4.8 | 0.00 | 0.00 | 0.00 | 99 | 1014.0 |
| 20260902161201 | -17 | 271 | 0.0 | 11.3 | 0.00 | 0.00 | 0.00 | 99 | 1014.0 |
| 20260902160701 | -17 | 274 | 1.6 | 11.3 | 0.00 | 0.00 | 0.00 | 99 | 1014.0 |
| 20260902160201 | -17 | 278 | 0.0 | 8.0 | 0.00 | 0.00 | 0.00 | 99 | 1014.0 |
| 20260902155701 | -17 | 288 | 1.6 | 8.0 | 0.00 | 0.00 | 0.00 | 99 | 1013.2 |
| 20260902155201 | -17 | 89 | 0.0 | 8.0 | 0.00 | 0.00 | 0.00 | 99 | 1014.0 |
| 20260902154701 | -17 | 270 | 0.0 | 8.0 | 0.00 | 0.00 | 0.00 | 99 | 1013.2 |
| 20260902154201 | -17 | 270 | 0.0 | 6.4 | 0.00 | 0.00 | 0.00 | 99 | 1014.0 |
| 20260902153701 | -17 | 277 | 0.0 | 4.8 | 0.00 | 0.00 | 0.00 | 99 | 1013.2 |
| 20260902153201 | -17 | 274 | 0.0 | 4.8 | 0.00 | 0.00 | 0.00 | 99 | 1013.2 |
| 20260902152701 | -17 | 176 | 0.0 | 3.2 | 0.00 | 0.00 | 0.00 | 99 | 1013.2 |
| 20260902152201 | -17 | 281 | 0.0 | 0.0 | 0.00 | 0.00 | 0.00 | 99 | 1014.0 |
| 20260902151701 | -17 | 269 | 0.0 | 0.0 | 0.00 | 0.00 | 0.00 | 99 | 1013.2 |
| 20260902151201 | -17 | 267 | 0.0 | 0.0 | 0.00 | 0.00 | 0.00 | 99 | 1013.2 |
| 20260902150701 | -17 | 138 | 0.0 | 0.0 | 0.00 | 0.00 | 0.00 | 99 | 1013.2 |
| 20260902150201 | -17 | 230 | 0.0 | 0.0 | 0.00 | 0.00 | 0.00 | 99 | 1014.0 |
| 20260902145701 | -17 | 270 | 0.0 | 1.6 | 0.00 | 0.00 | 0.00 | 99 | 1014.0 |
| 20260902145201 | -17 | 271 | 0.0 | 1.6 | 0.00 | 0.00 | 0.00 | 99 | 1014.0 |
| 20260902144701 | -17 | 277 | 0.0 | 0.0 | 0.00 | 0.00 | 0.00 | 99 | 1013.2 |
| 20260902144201 | -17 | 269 | 0.0 | 3.2 | 0.00 | 0.00 | 0.00 | 99 | 1014.0 |
| 20260902143701 | -17 | 270 | 0.0 | 6.4 | 0.00 | 0.00 | 0.00 | 99 | 1013.2 |
| 20260902143201 | -17 | 271 | 0.0 | 6.4 | 0.00 | 0.00 | 0.00 | 99 | 1013.2 |
| 20260902142701 | -17 | 280 | 0.0 | 0.0 | 0.00 | 0.00 | 0.00 | 99 | 1013.2 |
| 20260902142201 | -17 | 271 | 0.0 | 8.0 | 0.00 | 0.00 | 0.00 | 99 | 1014.0 |
| 20260902141701 | -17 | 358 | 1.6 | 8.0 | 0.00 | 0.00 | 0.00 | 99 | 1013.2 |
| 20260902141201 | -17 | 276 | 0.0 | 4.8 | 0.00 | 0.00 | 0.00 | 99 | 1014.0 |
| 20260902140701 | -17 | 270 | 0.0 | 1.6 | 0.00 | 0.00 | 0.00 | 99 | 1014.0 |
| 20260902140201 | -17 | 267 | 0.0 | 8.0 | 0.00 | 0.00 | 0.00 | 99 | 1013.2 |
| 20260902135701 | -17 | 280 | 1.6 | 8.0 | 0.00 | 0.00 | 0.00 | 99 | 1013.2 |
| 20260902135201 | -17 | 274 | 1.6 | 6.4 | 0.00 | 0.00 | 0.00 | 99 | 1013.2 |
| 20260902134701 | -17 | 269 | 0.0 | 6.4 | 0.00 | 0.00 | 0.00 | 99 | 1014.0 |
| 20260902134201 | -17 | 299 | 0.0 | 6.4 | 0.00 | 0.00 | 0.00 | 99 | 1014.0 |
| 20260902133701 | -17 | 42 | 0.0 | 4.8 | 0.00 | 0.00 | 0.00 | 99 | 1013.2 |
| 20260902133201 | -17 | 265 | 0.0 | 0.0 | 0.00 | 0.00 | 0.00 | 99 | 1014.0 |
| 20260902132701 | -17 | 94 | 0.0 | 0.0 | 0.00 | 0.00 | 0.00 | 99 | 1013.2 |
| 20260902132201 | -17 | 265 | 0.0 | 0.0 | 0.00 | 0.00 | 0.00 | 99 | 1014.0 |
| 20260902131701 | -17 | 238 | 0.0 | 4.8 | 0.00 | 0.00 | 0.00 | 99 | 1014.0 |
| 20260902131201 | -17 | 265 | 0.0 | 4.8 | 0.00 | 0.00 | 0.00 | 99 | 1013.2 |
| 20260902130701 | -17 | 272 | 0.0 | 3.2 | 0.00 | 0.00 | 0.00 | 99 | 1013.2 |
| 20260902130201 | -17 | 136 | 0.0 | 4.8 | 0.00 | 0.00 | 0.00 | 99 | 1013.2 |
| 20260902125701 | -17 | 268 | 1.6 | 4.8 | 0.00 | 0.00 | 0.00 | 99 | 1013.2 |
| 20260902125201 | -17 | 231 | 0.0 | 4.8 | 0.00 | 0.00 | 0.00 | 99 | 1013.2 |
| 20260902124701 | -17 | 279 | 0.0 | 4.8 | 0.00 | 0.00 | 0.00 | 99 | 1014.0 |
| 20260902124201 | -17 | 175 | 0.0 | 4.8 | 0.00 | 0.00 | 0.00 | 99 | 1013.2 |
| 20260902123701 | -17 | 136 | 0.0 | 4.8 | 0.00 | 0.00 | 0.00 | 99 | 1013.2 |
| 20260902123201 | -17 | 268 | 0.0 | 4.8 | 0.00 | 0.00 | 0.00 | 99 | 1013.0 |
| 20260902122700 | -17 | 257 | 0.0 | 3.2 | 0.00 | 0.00 | 0.00 | 99 | 1013.0 |
| 20260902122201 | -17 | 235 | 0.0 | 4.8 | 0.00 | 0.00 | 0.00 | 99 | 1013.1 |
| 20260902121701 | -17 | 85 | 0.0 | 4.8 | 0.00 | 0.00 | 0.00 | 99 | 1013.1 |
| 20260902121200 | -17 | 249 | 0.0 | 4.8 | 0.00 | 0.00 | 0.00 | 99 | 1013.0 |
| 20260902120701 | -17 | 319 | 0.0 | 1.6 | 0.00 | 0.00 | 0.00 | 99 | 1013.0 |
| 20260902120200 | -17 | 96 | 0.0 | 1.6 | 0.00 | 0.00 | 0.00 | 99 | 1013.0 |
| 20260902115700 | -17 | 246 | 0.0 | 0.0 | 0.00 | 0.00 | 0.00 | 99 | 1013.0 |
| 20260902115200 | -17 | 100 | 0.0 | 4.8 | 0.00 | 0.00 | 0.00 | 99 | 1013.0 |
| 20260902114700 | -17 | 278 | 0.0 | 4.8 | 0.00 | 0.00 | 0.00 | 99 | 1013.0 |
| 20260902114200 | -17 | 269 | 0.0 | 4.8 | 0.00 | 0.00 | 0.00 | 99 | 1013.0 |
| 20260902113700 | -17 | 304 | 0.0 | 4.8 | 0.00 | 0.00 | 0.00 | 99 | 1013.1 |
| 20260902113200 | -17 | 230 | 0.0 | 3.2 | 0.00 | 0.00 | 0.00 | 99 | 1013.1 |
| 20260902112700 | -17 | 271 | 0.0 | 4.8 | 0.00 | 0.00 | 0.00 | 99 | 1013.0 |
| 20260902112200 | -17 | 225 | 0.0 | 4.8 | 0.00 | 0.00 | 0.00 | 99 | 1013.0 |
| 20260902111701 | -17 | 81 | 0.0 | 3.2 | 0.00 | 0.00 | 0.00 | 99 | 1013.1 |
| 20260902111200 | -17 | 200 | 0.0 | 0.0 | 0.00 | 0.00 | 0.00 | 99 | 1013.2 |
| 20260902110700 | -17 | 203 | 0.0 | 0.0 | 0.00 | 0.00 | 0.00 | 99 | 1014.0 |
| 20260902110200 | -17 | 125 | 0.0 | 4.8 | 0.00 | 0.00 | 0.00 | 99 | 1014.0 |
| 20260902105700 | -17 | 86 | 0.0 | 4.8 | 0.00 | 0.00 | 0.00 | 99 | 1014.0 |
| 20260902105200 | -17 | 263 | 0.0 | 0.0 | 0.00 | 0.00 | 0.00 | 99 | 1014.0 |
| 20260902104700 | -17 | 244 | 0.0 | 3.2 | 0.00 | 0.00 | 0.00 | 99 | 1014.0 |
| 20260902104200 | -17 | 52 | 0.0 | 3.2 | 0.00 | 0.00 | 0.00 | 99 | 1013.2 |
| 20260902103700 | -17 | 278 | 0.0 | 0.0 | 0.00 | 0.00 | 0.00 | 99 | 1014.0 |
| 20260902103200 | -17 | 264 | 0.0 | 0.0 | 0.00 | 0.00 | 0.00 | 99 | 1013.1 |
| 20260902102700 | -17 | 219 | 0.0 | 0.0 | 0.00 | 0.00 | 0.00 | 99 | 1013.0 |
| 20260902102200 | -17 | 274 | 0.0 | 0.0 | 0.00 | 0.00 | 0.00 | 99 | 1013.0 |
| 20260902101701 | -17 | 156 | 0.0 | 0.0 | 0.00 | 0.00 | 0.00 | 99 | 1013.0 |
| 20260902101200 | -17 | 248 | 0.0 | 0.0 | 0.00 | 0.00 | 0.00 | 99 | 1013.0 |
| 20260902100700 | -17 | 131 | 0.0 | 0.0 | 0.00 | 0.00 | 0.00 | 99 | 1013.0 |
| 20260902100200 | -17 | 223 | 0.0 | 0.0 | 0.00 | 0.00 | 0.00 | 99 | 1013.0 |
| 20260902095700 | -17 | 239 | 0.0 | 0.0 | 0.00 | 0.00 | 0.00 | 99 | 1013.0 |
| 20260902095200 | -17 | 200 | 0.0 | 0.0 | 0.00 | 0.00 | 0.00 | 99 | 1013.0 |
| 20260902094700 | -17 | 204 | 0.0 | 0.0 | 0.00 | 0.00 | 0.00 | 99 | 1013.0 |
| 20260902094200 | -17 | 168 | 0.0 | 0.0 | 0.00 | 0.00 | 0.00 | 99 | 1013.0 |
| 20260902093700 | -17 | 200 | 0.0 | 0.0 | 0.00 | 0.00 | 0.00 | 99 | 1013.0 |
| 20260902093200 | -17 | 218 | 0.0 | 0.0 | 0.00 | 0.00 | 0.00 | 99 | 1013.0 |
| 20260902092700 | -17 | 238 | 0.0 | 0.0 | 0.00 | 0.00 | 0.00 | 99 | 1013.0 |
| 20260902092200 | -17 | 207 | 0.0 | 0.0 | 0.00 | 0.00 | 0.00 | 99 | 1013.0 |
| 20260902091700 | -17 | 220 | 0.0 | 0.0 | 0.00 | 0.00 | 0.00 | 99 | 1013.0 |
| 20260902091200 | -17 | 221 | 0.0 | 0.0 | 0.00 | 0.00 | 0.00 | 99 | 1013.0 |
| 20260902090700 | -17 | 248 | 0.0 | 0.0 | 0.00 | 0.00 | 0.00 | 99 | 1013.0 |
| 20260902090200 | -17 | 267 | 0.0 | 0.0 | 0.00 | 0.00 | 0.00 | 99 | 1012.2 |
| 20260902085700 | -17 | 249 | 0.0 | 0.0 | 0.00 | 0.00 | 0.00 | 99 | 1013.0 |
| 20260902085200 | -17 | 251 | 0.0 | 0.0 | 0.00 | 0.00 | 0.00 | 99 | 1012.2 |
| 20260902084700 | -17 | 93 | 0.0 | 0.0 | 0.00 | 0.00 | 0.00 | 99 | 1013.0 |
| 20260902084200 | -17 | 280 | 0.0 | 0.0 | 0.00 | 0.00 | 0.00 | 99 | 1013.0 |
| 20260902083700 | -17 | 279 | 0.0 | 0.0 | 0.00 | 0.00 | 0.00 | 99 | 1013.0 |
| 20260902083200 | -17 | 120 | 0.0 | 0.0 | 0.00 | 0.00 | 0.00 | 99 | 1012.2 |
| 20260902082700 | -17 | 252 | 0.0 | 0.0 | 0.00 | 0.00 | 0.00 | 99 | 1013.0 |
| 20260902082200 | -17 | 207 | 0.0 | 0.0 | 0.00 | 0.00 | 0.00 | 99 | 1012.2 |
| 20260902081700 | -17 | 209 | 0.0 | 0.0 | 0.00 | 0.00 | 0.00 | 99 | 1013.0 |
| 20260902081200 | -17 | 253 | 0.0 | 0.0 | 0.00 | 0.00 | 0.00 | 99 | 1012.2 |
| 20260902080700 | -17 | 261 | 0.0 | 0.0 | 0.00 | 0.00 | 0.00 | 99 | 1013.0 |
| 20260902080200 | -17 | 180 | 0.0 | 0.0 | 0.00 | 0.00 | 0.00 | 99 | 1012.2 |
| 20260902075700 | -17 | 267 | 0.0 | 0.0 | 0.00 | 0.00 | 0.00 | 99 | 1012.2 |
| 20260902075200 | -17 | 237 | 0.0 | 0.0 | 0.00 | 0.00 | 0.00 | 99 | 1012.2 |
| 20260902074700 | -17 | 239 | 0.0 | 0.0 | 0.00 | 0.00 | 0.00 | 99 | 1013.0 |
| 20260902074200 | -17 | 167 | 0.0 | 0.0 | 0.00 | 0.00 | 0.00 | 99 | 1012.2 |
| 20260902073700 | -17 | 239 | 0.0 | 0.0 | 0.00 | 0.00 | 0.00 | 99 | 1012.2 |
| 20260902073200 | -17 | 252 | 0.0 | 0.0 | 0.00 | 0.00 | 0.00 | 99 | 1012.2 |
| 20260902072700 | -17 | 105 | 0.0 | 0.0 | 0.00 | 0.00 | 0.00 | 99 | 1013.0 |
| 20260902072200 | -17 | 244 | 0.0 | 0.0 | 0.00 | 0.00 | 0.00 | 99 | 1012.2 |
| 20260902071700 | -17 | 281 | 0.0 | 0.0 | 0.00 | 0.00 | 0.00 | 99 | 1013.0 |
| 20260902071200 | -17 | 282 | 0.0 | 0.0 | 0.00 | 0.00 | 0.00 | 99 | 1013.0 |
| 20260902070700 | -17 | 235 | 0.0 | 0.0 | 0.00 | 0.00 | 0.00 | 99 | 1013.0 |
| 20260902070200 | -17 | 271 | 0.0 | 0.0 | 0.00 | 0.00 | 0.00 | 99 | 1012.2 |
| 20260902065200 | -17 | 263 | 0.0 | 0.0 | 0.00 | 0.00 | 0.00 | 99 | 1012.2 |
| 20260902064700 | -17 | 230 | 0.0 | 0.0 | 0.00 | 0.00 | 0.00 | 99 | 1013.0 |
| 20260902064200 | -17 | 152 | 0.0 | 1.6 | 0.00 | 0.00 | 0.00 | 99 | 1012.2 |
| 20260902063700 | -17 | 270 | 0.0 | 1.6 | 0.00 | 0.00 | 0.00 | 99 | 1013.0 |
| 20260902063200 | -17 | 310 | 0.0 | 0.0 | 0.00 | 0.00 | 0.00 | 99 | 1012.2 |
| 20260902062700 | -17 | 257 | 0.0 | 0.0 | 0.00 | 0.00 | 0.00 | 99 | 1013.0 |
| 20260902062200 | -17 | 262 | 0.0 | 0.0 | 0.00 | 0.00 | 0.00 | 99 | 1012.2 |
| 20260902061700 | -17 | 233 | 0.0 | 0.0 | 0.00 | 0.00 | 0.00 | 99 | 1013.0 |
| 20260902061200 | -17 | 228 | 0.0 | 6.4 | 0.00 | 0.00 | 0.00 | 99 | 1012.2 |
| 20260902060700 | -17 | 140 | 0.0 | 6.4 | 0.00 | 0.00 | 0.00 | 99 | 1013.0 |
| 20260902060200 | -17 | 241 | 0.0 | 0.0 | 0.00 | 0.00 | 0.00 | 99 | 1012.2 |
| 20260902055700 | -17 | 263 | 0.0 | 0.0 | 0.00 | 0.00 | 0.00 | 99 | 1012.2 |
| 20260902055200 | -17 | 124 | 0.0 | 0.0 | 0.00 | 0.00 | 0.00 | 99 | 1012.2 |
| 20260902054700 | -17 | 111 | 0.0 | 0.0 | 0.00 | 0.00 | 0.00 | 99 | 1013.0 |
| 20260902054200 | -17 | 254 | 0.0 | 0.0 | 0.00 | 0.00 | 0.00 | 99 | 1012.2 |
| 20260902053700 | -17 | 145 | 0.0 | 0.0 | 0.00 | 0.00 | 0.00 | 99 | 1013.0 |
| 20260902053200 | -17 | 127 | 0.0 | 4.8 | 0.00 | 0.00 | 0.00 | 99 | 1012.2 |
| 20260902052700 | -17 | 157 | 0.0 | 4.8 | 0.00 | 0.00 | 0.00 | 99 | 1013.0 |
| 20260902052200 | -17 | 131 | 0.0 | 1.6 | 0.00 | 0.00 | 0.00 | 99 | 1012.2 |
| 20260902051700 | -17 | 206 | 0.0 | 1.6 | 0.00 | 0.00 | 0.00 | 99 | 1013.0 |
| 20260902051200 | -17 | 45 | 0.0 | 3.2 | 0.00 | 0.00 | 0.00 | 99 | 1012.2 |
| 20260902050700 | -17 | 170 | 0.0 | 3.2 | 0.00 | 0.00 | 0.00 | 99 | 1013.0 |
| 20260902050200 | -17 | 152 | 0.0 | 0.0 | 0.00 | 0.00 | 0.00 | 99 | 1012.2 |
| 20260902045700 | -17 | 166 | 0.0 | 3.2 | 0.00 | 0.00 | 0.00 | 99 | 1012.2 |
| 20260902045200 | -17 | 81 | 0.0 | 3.2 | 0.00 | 0.00 | 0.00 | 99 | 1012.1 |
| 20260902044700 | -17 | 144 | 0.0 | 3.2 | 0.00 | 0.00 | 0.00 | 99 | 1012.1 |
| 20260902044200 | -17 | 117 | 0.0 | 3.2 | 0.00 | 0.00 | 0.00 | 99 | 1012.1 |
| 20260902043700 | -17 | 179 | 0.0 | 3.2 | 0.00 | 0.00 | 0.00 | 99 | 1012.1 |
| 20260902043200 | -17 | 172 | 0.0 | 1.6 | 0.00 | 0.00 | 0.00 | 99 | 1012.1 |
| 20260902042700 | -17 | 262 | 0.0 | 1.6 | 0.00 | 0.00 | 0.00 | 99 | 1012.0 |
| 20260902042200 | -17 | 223 | 0.0 | 1.6 | 0.00 | 0.00 | 0.00 | 99 | 1012.0 |
| 20260902041700 | -17 | 238 | 0.0 | 0.0 | 0.00 | 0.00 | 0.00 | 99 | 1012.0 |
| 20260902041200 | -17 | 268 | 0.0 | 0.0 | 0.00 | 0.00 | 0.00 | 99 | 1012.0 |
| 20260902040700 | -17 | 206 | 0.0 | 0.0 | 0.00 | 0.00 | 0.00 | 99 | 1012.0 |
| 20260902040200 | -17 | 198 | 0.0 | 0.0 | 0.00 | 0.00 | 0.00 | 99 | 1012.0 |
| 20260902035700 | -17 | 235 | 0.0 | 0.0 | 0.00 | 0.00 | 0.00 | 99 | 1012.0 |
| 20260902035200 | -17 | 267 | 0.0 | 0.0 | 0.00 | 0.00 | 0.00 | 99 | 1012.0 |
| 20260902034700 | -17 | 192 | 0.0 | 0.0 | 0.00 | 0.00 | 0.00 | 99 | 1012.0 |
| 20260902034200 | -17 | 178 | 0.0 | 0.0 | 0.00 | 0.00 | 0.00 | 99 | 1012.0 |
| 20260902033700 | -17 | 194 | 0.0 | 0.0 | 0.00 | 0.00 | 0.00 | 99 | 1012.0 |
| 20260902033200 | -17 | 229 | 0.0 | 0.0 | 0.00 | 0.00 | 0.00 | 99 | 1012.0 |
| 20260902032700 | -17 | 260 | 0.0 | 0.0 | 0.00 | 0.00 | 0.00 | 99 | 1012.0 |
| 20260902032200 | -17 | 175 | 0.0 | 0.0 | 0.00 | 0.00 | 0.00 | 99 | 1012.0 |
| 20260902031700 | -17 | 221 | 0.0 | 0.0 | 0.00 | 0.00 | 0.00 | 99 | 1012.0 |
| 20260902031200 | -17 | 205 | 0.0 | 0.0 | 0.00 | 0.00 | 0.00 | 99 | 1012.0 |
| 20260902030700 | -17 | 270 | 0.0 | 0.0 | 0.00 | 0.00 | 0.00 | 99 | 1012.0 |
| 20260902030200 | -17 | 273 | 0.0 | 0.0 | 0.00 | 0.00 | 0.00 | 99 | 1012.0 |
| 20260902025700 | -17 | 285 | 0.0 | 0.0 | 0.00 | 0.00 | 0.00 | 99 | 1012.0 |
| 20260902025200 | -17 | 137 | 0.0 | 0.0 | 0.00 | 0.00 | 0.00 | 99 | 1012.0 |
| 20260902024700 | -17 | 135 | 0.0 | 0.0 | 0.00 | 0.00 | 0.00 | 99 | 1012.0 |
| 20260902024200 | -17 | 135 | 0.0 | 0.0 | 0.00 | 0.00 | 0.00 | 99 | 1012.0 |
| 20260902023700 | -17 | 127 | 0.0 | 0.0 | 0.00 | 0.00 | 0.00 | 99 | 1012.0 |
| 20260902023200 | -17 | 270 | 0.0 | 0.0 | 0.00 | 0.00 | 0.00 | 99 | 1012.0 |
| 20260902022700 | -17 | 273 | 0.0 | 0.0 | 0.00 | 0.00 | 0.00 | 99 | 1012.0 |
| 20260902022200 | -17 | 267 | 0.0 | 0.0 | 0.00 | 0.00 | 0.00 | 99 | 1012.0 |
| 20260902021700 | -17 | 293 | 0.0 | 0.0 | 0.00 | 0.00 | 0.00 | 99 | 1012.0 |
| 20260902021200 | -17 | 285 | 0.0 | 0.0 | 0.00 | 0.00 | 0.00 | 99 | 1012.0 |
| 20260902020700 | -17 | 205 | 0.0 | 0.0 | 0.00 | 0.00 | 0.00 | 99 | 1012.0 |
| 20260902020200 | -17 | 250 | 0.0 | 0.0 | 0.00 | 0.00 | 0.00 | 99 | 1012.0 |
| 20260902015700 | -17 | 270 | 0.0 | 0.0 | 0.00 | 0.00 | 0.00 | 99 | 1012.0 |
| 20260902015200 | -17 | 232 | 0.0 | 0.0 | 0.00 | 0.00 | 0.00 | 99 | 1012.0 |
| 20260902014700 | -17 | 181 | 0.0 | 0.0 | 0.00 | 0.00 | 0.00 | 99 | 1012.0 |
| 20260902014200 | -17 | 178 | 0.0 | 0.0 | 0.00 | 0.00 | 0.00 | 99 | 1012.0 |
| 20260902013700 | -17 | 195 | 0.0 | 0.0 | 0.00 | 0.00 | 0.00 | 99 | 1012.0 |
| 20260902013200 | -17 | 270 | 0.0 | 0.0 | 0.00 | 0.00 | 0.00 | 99 | 1012.0 |
| 20260902012700 | -17 | 203 | 0.0 | 0.0 | 0.00 | 0.00 | 0.00 | 99 | 1012.0 |
| 20260902012200 | -17 | 137 | 0.0 | 0.0 | 0.00 | 0.00 | 0.00 | 99 | 1012.0 |
| 20260902011700 | -17 | 178 | 0.0 | 0.0 | 0.00 | 0.00 | 0.00 | 99 | 1011.2 |
| 20260902011200 | -17 | 263 | 0.0 | 0.0 | 0.00 | 0.00 | 0.00 | 99 | 1012.0 |
| 20260902010700 | -17 | 295 | 0.0 | 0.0 | 0.00 | 0.00 | 0.00 | 99 | 1011.2 |
| 20260902010200 | -17 | 286 | 0.0 | 0.0 | 0.00 | 0.00 | 0.00 | 99 | 1012.0 |
| 20260902005700 | -17 | 253 | 0.0 | 0.0 | 0.00 | 0.00 | 0.00 | 99 | 1011.2 |
| 20260902005200 | -17 | 266 | 0.0 | 0.0 | 0.00 | 0.00 | 0.00 | 99 | 1012.0 |
| 20260902004700 | -17 | 258 | 0.0 | 0.0 | 0.00 | 0.00 | 0.00 | 99 | 1011.2 |
| 20260902004200 | -17 | 185 | 0.0 | 0.0 | 0.00 | 0.00 | 0.00 | 99 | 1011.2 |
| 20260902003700 | -17 | 260 | 0.0 | 0.0 | 0.00 | 0.00 | 0.00 | 99 | 1011.1 |
| 20260902003200 | -17 | 234 | 0.0 | 1.6 | 0.00 | 0.00 | 0.00 | 99 | 1011.0 |
| 20260902002700 | -17 | 231 | 0.0 | 1.6 | 0.00 | 0.00 | 0.00 | 99 | 1011.0 |
| 20260902002200 | -17 | 223 | 0.0 | 0.0 | 0.00 | 0.00 | 0.00 | 99 | 1011.0 |
| 20260902001700 | -17 | 252 | 0.0 | 0.0 | 0.00 | 0.00 | 0.00 | 99 | 1011.0 |
| 20260902001200 | -17 | 255 | 0.0 | 0.0 | 0.00 | 0.00 | 0.00 | 99 | 1011.0 |
| 20260902000700 | -17 | 274 | 0.0 | 0.0 | 0.00 | 0.00 | 0.00 | 99 | 1011.0 |
| 20260902000200 | -17 | 166 | 0.0 | 0.0 | 0.00 | 0.00 | 0.00 | 99 | 1011.0 |
| 20260901235700 | -17 | 219 | 0.0 | 0.0 | 0.00 | 0.00 | 0.00 | 99 | 1010.2 |
| 20260901235200 | -17 | 222 | 0.0 | 0.0 | 0.00 | 0.00 | 0.00 | 99 | 1011.0 |
| 20260901234700 | -17 | 247 | 0.0 | 0.0 | 0.00 | 0.00 | 0.00 | 99 | 1011.0 |
| 20260901234200 | -17 | 235 | 0.0 | 0.0 | 0.00 | 0.00 | 0.00 | 99 | 1011.0 |
| 20260901233700 | -17 | 225 | 0.0 | 0.0 | 0.00 | 0.00 | 0.00 | 99 | 1011.0 |
| 20260901233200 | -17 | 225 | 0.0 | 0.0 | 0.00 | 0.00 | 0.00 | 99 | 1011.0 |
| 20260901232700 | -17 | 244 | 0.0 | 0.0 | 0.00 | 0.00 | 0.00 | 99 | 1011.0 |
| 20260901232200 | -17 | 240 | 0.0 | 0.0 | 0.00 | 0.00 | 0.00 | 99 | 1011.0 |
| 20260901231700 | -17 | 225 | 0.0 | 0.0 | 0.00 | 0.00 | 0.00 | 99 | 1010.2 |
| 20260901231200 | -17 | 225 | 0.0 | 0.0 | 0.00 | 0.00 | 0.00 | 99 | 1011.0 |
| 20260901230700 | -17 | 225 | 0.0 | 0.0 | 0.00 | 0.00 | 0.00 | 99 | 1011.0 |
| 20260901230200 | -17 | 225 | 0.0 | 0.0 | 0.00 | 0.00 | 0.00 | 99 | 1011.0 |
| 20260901225700 | -17 | 225 | 0.0 | 0.0 | 0.00 | 0.00 | 0.00 | 99 | 1011.0 |
| 20260901225200 | -17 | 225 | 0.0 | 0.0 | 0.00 | 0.00 | 0.00 | 99 | 1011.0 |
| 20260901224700 | -17 | 225 | 0.0 | 0.0 | 0.00 | 0.00 | 0.00 | 99 | 1011.0 |
| 20260901224200 | -17 | 225 | 0.0 | 0.0 | 0.00 | 0.00 | 0.00 | 99 | 1011.0 |
| 20260901223700 | -17 | 225 | 0.0 | 0.0 | 0.00 | 0.00 | 0.00 | 99 | 1011.0 |
| 20260901223200 | -17 | 263 | 0.0 | 0.0 | 0.00 | 0.00 | 0.00 | 99 | 1011.0 |
| 20260901222700 | -17 | 296 | 0.0 | 0.0 | 0.00 | 0.00 | 0.00 | 99 | 1011.0 |
| 20260901222200 | -17 | 298 | 0.0 | 0.0 | 0.00 | 0.00 | 0.00 | 99 | 1011.0 |
| 20260901221700 | -17 | 292 | 0.0 | 0.0 | 0.00 | 0.00 | 0.00 | 99 | 1011.0 |
| 20260901221200 | -17 | 292 | 0.0 | 0.0 | 0.00 | 0.00 | 0.00 | 99 | 1011.0 |
| 20260901220700 | -17 | 292 | 0.0 | 0.0 | 0.00 | 0.00 | 0.00 | 99 | 1011.0 |
| 20260901220200 | -17 | 291 | 0.0 | 0.0 | 0.00 | 0.00 | 0.00 | 99 | 1011.0 |
| 20260901215700 | -17 | 289 | 0.0 | 0.0 | 0.00 | 0.00 | 0.00 | 99 | 1011.0 |
| 20260901215200 | -17 | 297 | 0.0 | 0.0 | 0.00 | 0.00 | 0.00 | 99 | 1011.0 |
| 20260901214700 | -17 | 314 | 0.0 | 0.0 | 0.00 | 0.00 | 0.00 | 99 | 1011.0 |
| 20260901214159 | -17 | 274 | 0.0 | 0.0 | 0.00 | 0.00 | 0.00 | 99 | 1011.0 |
| 20260901213700 | -17 | 270 | 0.0 | 0.0 | 0.00 | 0.00 | 0.00 | 99 | 1011.0 |
| 20260901213200 | -17 | 288 | 0.0 | 0.0 | 0.00 | 0.00 | 0.00 | 99 | 1011.0 |
| 20260901212700 | -17 | 292 | 0.0 | 0.0 | 0.00 | 0.00 | 0.00 | 99 | 1011.0 |
| 20260901212159 | -17 | 256 | 0.0 | 0.0 | 0.00 | 0.00 | 0.00 | 99 | 1011.0 |
| 20260901211700 | -17 | 247 | 0.0 | 0.0 | 0.00 | 0.00 | 0.00 | 99 | 1011.0 |
| 20260901211200 | -17 | 247 | 0.0 | 0.0 | 0.00 | 0.00 | 0.00 | 99 | 1011.0 |
| 20260901210659 | -17 | 141 | 0.0 | 0.0 | 0.00 | 0.00 | 0.00 | 99 | 1011.0 |
| 20260901210159 | -17 | 135 | 0.0 | 0.0 | 0.00 | 0.00 | 0.00 | 99 | 1011.0 |
| 20260901205659 | -17 | 135 | 0.0 | 0.0 | 0.00 | 0.00 | 0.00 | 99 | 1010.2 |
| 20260901205159 | -17 | 114 | 0.0 | 0.0 | 0.00 | 0.00 | 0.00 | 99 | 1011.0 |
| 20260901204659 | -17 | 112 | 0.0 | 0.0 | 0.00 | 0.00 | 0.00 | 99 | 1010.2 |
| 20260901204159 | -17 | 315 | 0.0 | 0.0 | 0.00 | 0.00 | 0.00 | 99 | 1010.2 |
| 20260901203659 | -17 | 315 | 0.0 | 0.0 | 0.00 | 0.00 | 0.00 | 99 | 1010.2 |
| 20260901203159 | -17 | 315 | 0.0 | 0.0 | 0.00 | 0.00 | 0.00 | 99 | 1011.0 |
| 20260901202659 | -17 | 315 | 0.0 | 0.0 | 0.00 | 0.00 | 0.00 | 99 | 1010.2 |
| 20260901202159 | -17 | 325 | 0.0 | 0.0 | 0.00 | 0.00 | 0.00 | 99 | 1011.0 |
| 20260901201700 | -17 | 337 | 0.0 | 0.0 | 0.00 | 0.00 | 0.00 | 99 | 1010.2 |
| 20260901201159 | -17 | 337 | 0.0 | 0.0 | 0.00 | 0.00 | 0.00 | 99 | 1011.0 |
| 20260901200659 | -17 | 337 | 0.0 | 0.0 | 0.00 | 0.00 | 0.00 | 99 | 1010.2 |
| 20260901200159 | -17 | 354 | 0.0 | 0.0 | 0.00 | 0.00 | 0.00 | 99 | 1010.2 |
| 20260901195659 | -17 | 59 | 0.0 | 0.0 | 0.00 | 0.00 | 0.00 | 99 | 1010.2 |
| 20260901195159 | -17 | 84 | 0.0 | 0.0 | 0.00 | 0.00 | 0.00 | 99 | 1011.0 |